Regional Weather Roundup
Issued by NWS

Home | Current Version | Previous Version | Text Only | Print | Product List | Glossary Off
Versions: 1 2 3 4 5 6 7 8 9 10 11 12 13 14 15 16 17 18 19 20 21 22 23 24 25 26 27 28 29 30 31 32 33 34 35 36 37 38 39 40 41 42 43 44 45 46 47 48 49 50

000
ASUS45 KCYS 292110
RWRWY

WYOMING REGIONAL WEATHER ROUNDUP
NATIONAL WEATHER SERVICE CHEYENNE WY
300 PM MDT FRI AUG 29 2014

NOTE:  "FAIR" INDICATES FEW OR NO CLOUDS BELOW 12,000 FEET
WITH NO SIGNIFICANT WEATHER AND/OR OBSTRUCTIONS TO VISIBILITY.

WYZ001-292200-
YELLOWSTONE NATIONAL PARK

CITY           SKY/WX    TMP DP  RH WIND       PRES   REMARKS
LK YELLOWSTONE   N/A     66  31  27 W13G21    30.25F
W YELLOWSTONE  NOT AVBL

$$
WYZ002>013-054>058-071-098>099-292200-
NORTHERN WYOMING

CITY           SKY/WX    TMP DP  RH WIND       PRES   REMARKS
JACKSON        PTSUNNY   73  37  27 S10       30.15F
CODY           MOSUNNY   77  48  36 E9        30.02F
GREYBULL       SUNNY     81  45  28 SE8       29.98F
WORLAND        SUNNY     80  41  24 VRB7      29.99F
SHERIDAN       MOSUNNY   73  52  47 S7        30.04F
BUFFALO        MOSUNNY   74  51  44 VRB3      30.09F
GILLETTE       SUNNY     73  52  47 VRB5      30.05F
HULETT         FAIR      72  52  49 MISG      30.06
NEWCASTLE      FAIR      77  43  29 MISG      30.03

$$
WYZ014>020-022>026-101>103-292200-
CENTRAL WYOMING

CITY           SKY/WX    TMP DP  RH WIND       PRES   REMARKS
BIG PINEY      SUNNY     76  39  26 SW8       30.19F
PINEDALE       PTCLDY    73  34  23 NW9G22    30.19F
DUBOIS         FAIR      72  28  20 N12G23    30.17F
LANDER         MOSUNNY   81  44  27 MISG      30.05F
RIVERTON       SUNNY     79  41  25 E8        30.08F
CASPER         PTSUNNY   76  40  27 SE12      30.08F
DOUGLAS        SUNNY     79  46  31 VRB5      30.07F

$$
WYZ021-027>030-104>119-292200-
SOUTHERN WYOMING

CITY           SKY/WX    TMP DP  RH WIND       PRES   REMARKS
EVANSTON       MOSUNNY   77  38  24 SW13      30.22F
KEMMERER       PTCLDY    72  37  28 W9G18     30.24F
ROCK SPRINGS   SUNNY     77  36  22 W16G24    30.18F
DIXON          FAIR      75  45  34 W5        30.21F
RAWLINS        MOSUNNY   77  38  24 SW16G22   30.18F
SARATOGA       FAIR      73  41  31 W15       30.21F
LARAMIE        CLOUDY    62  45  53 E8        30.19F
CHEYENNE       SUNNY     75  45  34 MISG      30.13F
TORRINGTON     MOSUNNY   81  50  33 NW9       30.02F
PINE BLUFFS    FAIR      75  48  38 N15       30.09F

$$


USA.gov is the U.S. government's official web portal to all federal, state and local government web resources and services.